• In Uzbekistan
  • List of Countries
  • For 7 days
  • Water Temperature
  • Satellite Maps
  • Weather Map
  • Weather Widgets
  • user-avatar
    Login

    Hourly Weather Cyklady

    Today, 11 December, Monday

    Time Temperature Precipitation Wind Pressure Humidity
    00:00 +1°C° 0 mm 2 mps 685 mmHg 65%
    01:00 +1°C° 0 mm 2 mps 685 mmHg 62%
    02:00 +1°C° 0 mm 2 mps 685 mmHg 60%
    03:00 +1°C° 0 mm 2 mps 685 mmHg 59%
    04:00 +1°C° 0 mm 2 mps 685 mmHg 57%
    05:00 +1°C° 0 mm 2 mps 685 mmHg 58%
    06:00 +1°C° 0 mm 2 mps 686 mmHg 59%
    07:00 +2°C° 0 mm 2 mps 686 mmHg 58%
    08:00 +4°C° 0 mm 2 mps 686 mmHg 56%
    09:00 +6°C° 0 mm 2 mps 687 mmHg 55%
    10:00 +8°C° 0 mm 2 mps 688 mmHg 54%
    11:00 +9°C° 0 mm 2 mps 688 mmHg 56%
    12:00 +10°C° 0 mm 2 mps 688 mmHg 58%
    13:00 +10°C° 0 mm 2 mps 688 mmHg 60%
    14:00 +9°C° 0 mm 2 mps 688 mmHg 67%
    15:00 +8°C° 0 mm 2 mps 687 mmHg 74%
    16:00 +8°C° 0 mm 1 mps 687 mmHg 81%
    17:00 +7°C° 0 mm 1 mps 687 mmHg 84%
    18:00 +5°C° 0 mm 2 mps 687 mmHg 87%
    19:00 +4°C° 0 mm 2 mps 687 mmHg 90%
    20:00 +4°C° 0 mm 2 mps 687 mmHg 88%
    21:00 +4°C° 0 mm 2 mps 687 mmHg 87%
    22:00 +4°C° 0 mm 2 mps 687 mmHg 85%
    23:00 +4°C° 0 mm 2 mps 687 mmHg 84%

    Tomorrow, 12 December, Tuesday

    Time Temperature Precipitation Wind Pressure Humidity
    00:00 +4°C° 0 mm 2 mps 687 mmHg 83%
    01:00 +4°C° 0 mm 2 mps 687 mmHg 82%
    02:00 +4°C° 0 mm 2 mps 687 mmHg 83%
    03:00 +4°C° 0 mm 2 mps 687 mmHg 83%
    04:00 +4°C° 0 mm 2 mps 687 mmHg 84%
    05:00 +4°C° 0 mm 2 mps 687 mmHg 83%
    06:00 +4°C° 0 mm 2 mps 687 mmHg 83%
    07:00 +4°C° 0 mm 2 mps 687 mmHg 82%
    08:00 +6°C° 0 mm 2 mps 688 mmHg 75%
    09:00 +9°C° 0 mm 2 mps 689 mmHg 68%
    10:00 +12°C° 0 mm 1 mps 689 mmHg 61%
    11:00 +13°C° 0 mm 2 mps 689 mmHg 61%
    12:00 +13°C° 0 mm 2 mps 689 mmHg 61%
    13:00 +14°C° 0 mm 2 mps 689 mmHg 61%
    14:00 +12°C° 0 mm 2 mps 689 mmHg 68%
    15:00 +11°C° 0 mm 1 mps 688 mmHg 75%
    16:00 +10°C° 0 mm 1 mps 688 mmHg 82%
    17:00 +9°C° 0 mm 1 mps 688 mmHg 85%
    18:00 +9°C° 0 mm 1 mps 688 mmHg 88%
    19:00 +8°C° 0 mm 1 mps 688 mmHg 91%
    20:00 +7°C° 0 mm 1 mps 688 mmHg 90%
    21:00 +7°C° 0 mm 1 mps 688 mmHg 90%
    22:00 +7°C° 0 mm 1 mps 688 mmHg 89%
    23:00 +7°C° 0 mm 1 mps 688 mmHg 87%

    Day after tomorrow, 13 December, Wednesday

    Time Temperature Precipitation Wind Pressure Humidity
    00:00 +5°C° 0 mm 2 mps 688 mmHg 86%
    01:00 +5°C° 0 mm 2 mps 688 mmHg 84%
    02:00 +5°C° 0 mm 2 mps 688 mmHg 83%
    03:00 +5°C° 0 mm 2 mps 688 mmHg 82%
    04:00 +5°C° 0 mm 2 mps 687 mmHg 81%
    05:00 +5°C° 0 mm 2 mps 687 mmHg 83%
    06:00 +5°C° 0 mm 2 mps 688 mmHg 84%
    07:00 +5°C° 0 mm 2 mps 688 mmHg 86%
    08:00 +7°C° 0 mm 2 mps 688 mmHg 81%
    09:00 +9°C° 0 mm 2 mps 689 mmHg 76%
    10:00 +12°C° 0 mm 2 mps 689 mmHg 71%
    11:00 +13°C° 0 mm 2 mps 689 mmHg 69%
    12:00 +13°C° 0 mm 2 mps 688 mmHg 66%
    13:00 +14°C° 0 mm 2 mps 688 mmHg 63%
    14:00 +12°C° 0 mm 2 mps 688 mmHg 68%
    15:00 +10°C° 0 mm 2 mps 687 mmHg 74%
    16:00 +9°C° 0 mm 2 mps 687 mmHg 80%
    17:00 +8°C° 0 mm 2 mps 687 mmHg 84%
    18:00 +7°C° 0 mm 2 mps 687 mmHg 87%
    19:00 +6°C° 0 mm 2 mps 687 mmHg 91%
    20:00 +6°C° 0 mm 2 mps 687 mmHg 90%
    21:00 +6°C° 0 mm 2 mps 687 mmHg 90%
    22:00 +6°C° 0 mm 2 mps 687 mmHg 89%
    23:00 +5°C° 0 mm 2 mps 686 mmHg 89%

    14 December, Thursday

    Time Temperature Precipitation Wind Pressure Humidity
    00:00 +5°C° 0 mm 2 mps 686 mmHg 88%
    01:00 +5°C° 0 mm 2 mps 686 mmHg 88%
    02:00 +5°C° 0 mm 2 mps 686 mmHg 89%
    03:00 +5°C° 0 mm 2 mps 685 mmHg 90%
    04:00 +5°C° 0 mm 2 mps 685 mmHg 90%
    05:00 +5°C° 0 mm 2 mps 685 mmHg 91%
    06:00 +6°C° 0 mm 2 mps 685 mmHg 92%
    07:00 +6°C° 0 mm 2 mps 686 mmHg 93%
    08:00 +7°C° 0 mm 2 mps 686 mmHg 88%
    09:00 +9°C° 0 mm 2 mps 686 mmHg 83%
    10:00 +10°C° 0 mm 2 mps 686 mmHg 77%
    11:00 +12°C° 0 mm 2 mps 686 mmHg 73%
    12:00 +11°C° 0 mm 3 mps 686 mmHg 68%
    13:00 +12°C° 0 mm 3 mps 685 mmHg 63%
    14:00 +11°C° 0 mm 3 mps 685 mmHg 69%
    15:00 +10°C° 0 mm 3 mps 685 mmHg 75%
    16:00 +8°C° 0 mm 3 mps 684 mmHg 80%
    17:00 +8°C° 0 mm 3 mps 685 mmHg 84%
    18:00 +7°C° 0 mm 3 mps 685 mmHg 88%
    19:00 +5°C° 0 mm 3 mps 685 mmHg 92%
    20:00 +5°C° 0 mm 3 mps 685 mmHg 92%
    21:00 +5°C° 0 mm 3 mps 685 mmHg 93%
    22:00 +4°C° 0 mm 3 mps 684 mmHg 93%
    23:00 +4°C° 0 mm 3 mps 684 mmHg 93%

    15 December, Friday

    Time Temperature Precipitation Wind Pressure Humidity
    00:00 +4°C° 0 mm 3 mps 684 mmHg 93%
    01:00 +4°C° 0 mm 3 mps 684 mmHg 93%
    02:00 +4°C° 0 mm 2 mps 684 mmHg 93%
    03:00 +4°C° 0 mm 2 mps 683 mmHg 92%
    04:00 +4°C° 0 mm 2 mps 683 mmHg 92%
    05:00 +4°C° 0 mm 2 mps 683 mmHg 90%
    06:00 +4°C° 0 mm 2 mps 683 mmHg 87%
    07:00 +3°C° 0 mm 2 mps 684 mmHg 85%
    08:00 +6°C° 0 mm 2 mps 684 mmHg 76%
    09:00 +8°C° 0 mm 2 mps 684 mmHg 67%
    10:00 +10°C° 0 mm 2 mps 685 mmHg 58%
    11:00 +12°C° 0 mm 2 mps 685 mmHg 56%
    12:00 +12°C° 0 mm 2 mps 684 mmHg 54%
    13:00 +12°C° 0 mm 3 mps 684 mmHg 51%
    14:00 +12°C° 0 mm 2 mps 684 mmHg 58%
    15:00 +9°C° 0 mm 2 mps 684 mmHg 65%
    16:00 +8°C° 0 mm 2 mps 683 mmHg 71%
    17:00 +7°C° 0 mm 2 mps 683 mmHg 75%
    18:00 +6°C° 0 mm 2 mps 683 mmHg 78%
    19:00 +6°C° 0 mm 2 mps 683 mmHg 81%
    20:00 +6°C° 0 mm 2 mps 683 mmHg 84%
    21:00 +6°C° 0 mm 2 mps 683 mmHg 87%
    22:00 +6°C° 0 mm 2 mps 683 mmHg 90%
    23:00 +5°C° 0 mm 2 mps 683 mmHg 91%

    16 December, Saturday

    Time Temperature Precipitation Wind Pressure Humidity
    00:00 +5°C° 0 mm 2 mps 683 mmHg 92%
    01:00 +5°C° 0 mm 2 mps 683 mmHg 93%
    02:00 +5°C° 0 mm 2 mps 683 mmHg 92%
    03:00 +5°C° 0 mm 2 mps 682 mmHg 91%
    04:00 +5°C° 0 mm 2 mps 682 mmHg 90%
    05:00 +5°C° 0 mm 2 mps 682 mmHg 91%
    06:00 +6°C° 0 mm 2 mps 683 mmHg 92%
    07:00 +6°C° 0 mm 2 mps 683 mmHg 93%
    08:00 +8°C° 0 mm 2 mps 683 mmHg 86%
    09:00 +9°C° 0 mm 3 mps 683 mmHg 79%
    10:00 +11°C° 0 mm 3 mps 684 mmHg 73%
    11:00 +12°C° 0 mm 3 mps 683 mmHg 68%
    12:00 +12°C° 0 mm 4 mps 683 mmHg 62%
    13:00 +13°C° 0 mm 4 mps 683 mmHg 57%
    14:00 +12°C° 0 mm 3 mps 682 mmHg 65%
    15:00 +11°C° 0 mm 3 mps 682 mmHg 72%
    16:00 +10°C° 0 mm 3 mps 682 mmHg 80%
    17:00 +9°C° 0.3 mm 3 mps 682 mmHg 84%
    18:00 +8°C° 0.3 mm 4 mps 682 mmHg 88%
    19:00 +7°C° 0.3 mm 4 mps 682 mmHg 92%
    20:00 +7°C° 1 mm 4 mps 682 mmHg 91%
    21:00 +7°C° 1 mm 4 mps 681 mmHg 91%
    22:00 +6°C° 1 mm 5 mps 681 mmHg 91%
    23:00 +6°C° 0.2 mm 4 mps 681 mmHg 90%
    Show more